Location: Melbourne
(37.8170°S, 144.9670°E)
Time: 14:34:51
(UTC+10:00)

Vanguard 1 Rocket - Visible Passes

Search period start: 22 April 2018 00:00
Search period end: 02 May 2018 00:00
Orbit: 655 x 4223 km, 34.3° (Epoch: 20 April)

Date Brightness Start Highest point End Pass type
(mag) Time Alt. Az. Time Alt. Az. Time Alt. Az.
22 Apr 11.2 00:04:19 10° W 00:42:11 19° ENE 00:46:39 10° ENE visible
22 Apr 10.9 02:59:32 38° N 02:59:32 38° N 03:15:22 10° NNE visible
22 Apr 11.4 05:16:52 14° WNW 05:21:36 15° NW 05:33:04 10° NNW visible
22 Apr 9.4 18:06:04 10° NNW 18:12:09 28° NE 18:22:08 10° E visible
22 Apr 9.1 20:28:06 10° WNW 20:37:27 70° NNE 20:39:56 61° ENE visible
22 Apr 10.4 22:52:52 10° W 23:35:26 - ENE 22:57:12 30° W visible
23 Apr 11.2 01:52:46 30° NNE 01:52:46 30° NNE 02:02:50 10° NE visible
23 Apr 11.1 04:10:06 26° NW 04:10:06 26° NW 04:26:35 10° N visible
23 Apr 8.9 19:18:04 10° NW 19:25:42 54° NNE 19:32:35 30° E visible
23 Apr 9.5 21:41:54 10° W 21:49:51 61° WNW 21:49:51 61° WNW visible
24 Apr 11.2 00:45:57 15° NE 00:45:57 15° NE 00:48:52 10° NE visible
24 Apr 11.1 03:03:16 31° N 03:03:16 31° N 03:16:29 10° NNE visible
24 Apr 9.1 18:08:38 10° NNW 18:14:45 35° NE 18:25:15 10° E visible
24 Apr 9.0 20:31:19 10° WNW 20:40:28 74° N 20:42:31 65° ENE visible
24 Apr 10.5 22:56:08 10° W 23:39:04 - ENE 22:59:46 27° W visible
25 Apr 11.4 01:56:22 25° NNE 01:56:22 25° NNE 02:04:25 10° NE visible
25 Apr 11.3 04:13:41 19° NW 04:13:41 19° NW 04:25:56 10° N visible
25 Apr 8.8 19:21:09 10° WNW 19:28:36 61° NNE 19:35:09 32° E visible
25 Apr 9.5 21:45:11 10° W 21:52:25 56° WNW 21:52:25 56° WNW visible
26 Apr 11.3 00:49:25 13° NE 00:49:25 13° NE 00:50:50 10° NE visible
26 Apr 11.3 03:06:43 24° N 03:06:43 24° N 03:17:03 10° N visible
26 Apr 8.8 18:11:27 10° NW 18:17:31 42° NNE 18:27:47 11° E visible
26 Apr 8.9 20:34:36 10° WNW 20:43:32 76° N 20:45:03 70° NE visible
26 Apr 10.5 22:59:25 10° W 23:02:19 23° W 23:02:19 23° W visible
27 Apr 11.5 01:59:41 20° NNE 01:59:41 20° NNE 02:05:38 10° NNE visible
27 Apr 11.5 04:16:58 13° NW 04:16:58 13° NW 04:23:18 10° NNW visible
27 Apr 8.6 19:24:20 10° WNW 19:31:38 67° NNE 19:37:41 35° E visible
27 Apr 9.6 21:48:29 10° W 21:54:57 50° WNW 21:54:57 50° WNW visible
28 Apr 11.3 00:52:34 10° NE 00:52:34 10° NE 00:12:13 - W visible
28 Apr 11.5 03:09:51 18° NNW 03:09:51 18° NNW 03:16:52 10° N visible
28 Apr 8.6 18:14:26 10° NW 18:20:26 50° NNE 18:30:19 13° E visible
28 Apr 8.9 20:37:55 10° W 20:46:39 76° N 20:47:35 73° NE visible
28 Apr 10.6 23:02:44 10° W 23:04:51 19° W 23:04:51 19° W visible
29 Apr 11.6 02:02:39 15° NNE 02:02:39 15° NNE 02:06:21 10° NNE visible
29 Apr 8.6 19:27:35 10° WNW 19:34:44 71° N 19:40:14 37° E visible
29 Apr 9.7 21:51:49 10° W 21:57:30 44° WNW 21:57:30 44° WNW visible
30 Apr11.400:55:24NE00:55:24NE00:14:46Wvisible
30 Apr 11.6 03:12:39 12° NNW 03:12:39 12° NNW 03:15:26 10° N visible
30 Apr 8.4 18:17:34 10° WNW 18:23:28 57° NNE 18:32:53 14° E visible
30 Apr 8.9 20:41:15 10° W 20:49:47 74° N 20:50:09 73° N visible
30 Apr 10.8 23:06:07 10° W 23:07:25 15° W 23:07:25 15° W visible
01 May 11.7 02:05:18 11° N 02:05:18 11° N 02:06:28 10° N visible
01 May 8.5 19:30:54 10° W 19:37:54 73° N 19:42:50 39° ENE visible
01 May 9.8 21:55:10 10° W 22:00:06 38° WNW 22:00:06 38° WNW visible
